Date,TemperatureHighF,TemperatureAvgF,TemperatureLowF,DewpointHighF,DewpointAvgF,DewpointLowF,HumidityHigh,HumidityAvg,HumidityLow,PressureMaxIn,PressureMinIn,WindSpeedMaxMPH,WindSpeedAvgMPH,GustSpeedMaxMPH,PrecipitationSumIn
2013-1-1,34.4,34.2,34.0,24.6,24.4,24.1,68,67,66,29.78,29.76,6,5,25,0.00
2013-1-2,26.9,21.2,13.8,17.4,8.6,2.1,68,58,52,30.10,30.00,14,8,25,0.00
2013-1-3,25.3,16.6,7.3,11.4,0.6,-4.6,63,50,29,30.14,30.00,16,7,25,0.00
2013-1-4,38.9,31.2,21.7,24.3,20.2,11.4,74,64,51,30.00,29.81,14,7,25,0.00
2013-1-5,41.8,36.1,31.0,25.1,21.0,16.1,70,55,36,30.27,29.85,14,5,25,0.00
2013-1-6,43.1,36.3,29.6,29.2,26.0,19.5,87,67,55,30.23,29.94,12,5,25,0.00
2013-1-11,43.4,41.0,39.2,37.6,34.4,31.3,92,78,66,30.39,30.24,4,1,25,0.11
2013-1-12,41.0,40.0,39.4,40.2,38.0,37.2,97,92,91,30.25,30.18,2,0,25,0.00
2013-1-14,57.3,56.0,54.8,34.9,34.3,33.8,47,44,41,30.10,30.08,11,10,25,0.00
2013-1-15,41.7,39.6,37.7,27.8,25.2,23.5,59,56,54,30.29,30.24,8,4,25,0.00
2013-1-18,24.1,23.1,22.0,6.0,2.6,-2.0,48,41,32,30.46,30.41,11,6,25,0.00
2013-1-19,49.6,40.7,23.6,33.5,24.6,5.3,71,53,38,30.41,29.90,28,8,28,0.00
2013-1-20,53.9,43.4,30.5,35.8,26.2,9.8,76,52,33,29.91,29.53,37,12,42,0.00
2013-1-21,29.4,26.7,24.3,24.0,17.7,5.5,86,70,38,29.99,29.80,13,3,13,0.00
2013-1-22,25.6,21.2,14.4,20.8,8.1,-2.2,89,59,34,30.08,29.76,26,9,31,0.00
2013-1-23,16.3,11.8,8.0,0.8,-7.3,-12.0,61,42,29,30.15,30.07,31,11,33,0.00
2013-1-24,20.6,12.1,4.2,-5.4,-9.2,-12.1,52,38,23,30.23,30.05,32,10,32,0.00
2013-1-25,23.8,16.7,9.6,14.2,-5.9,-12.0,84,38,23,30.31,30.07,23,8,24,0.00
2013-1-26,25.2,18.4,13.5,15.8,3.3,-6.4,89,54,28,30.23,30.01,28,7,29,0.00
2013-1-27,31.0,21.2,14.0,4.1,1.2,-5.1,61,43,25,30.47,30.23,25,9,27,0.00
2013-1-28,33.6,25.6,21.9,21.3,5.1,1.3,74,42,28,30.45,30.19,8,3,25,0.00
2013-1-30,62.0,60.5,59.0,58.1,57.4,56.7,93,90,85,29.62,29.47,35,10,35,0.09
2013-1-31,61.9,48.2,32.1,59.1,35.8,14.4,92,65,36,29.59,28.98,47,15,48,0.32